Weather History for KSRB - February, 2013

Change the Weather History Date:

Monday, February 4, 2013

  Actual Average (KCSV) Record (KCSV)
Temperature  
Mean Temperature 36 °F 37 °F  
Max Temperature 51 °F 46 °F 67 °F (1962)
Min Temperature 21 °F 28 °F -10 °F (1996)
Degree Days  
Heating Degree Days 29    
Month to date heating degree days  
Since 1 July heating degree days  
Cooling Degree Days 0    
Month to date cooling degree days  
Year to date cooling degree days  
Moisture  
Dew Point 29 °F    
Average Humidity 72    
Maximum Humidity 100    
Minimum Humidity 47    
Precipitation  
Precipitation 0.00 in 0.16 in 1.42 in (1975)
Month to date precipitation 0.65  
Year to date precipitation 5.41  
Sea Level Pressure  
Sea Level Pressure 30.00 in    
Wind  
Wind Speed 4 mph (SSW)    
Max Wind Speed 15 mph    
Max Gust Speed -    
Visibility 10 miles    
Events      
T = Trace of Precipitation, MM = Missing Value Source: NWS Daily Summary

Daily Weather History Graph

Daily Weather History Graph

Search for Another Location

Airport or City:

Trip Planner

Search our weather history database for the weather conditions in past years. The results will help you decide how hot, cold, wet, or windy it might be!

Date:

Astronomy

Feb. 04, 2013 Rise Set
Actual Time 6:40 AM CST 5:12 PM CST
Civil Twilight 6:13 AM CST 5:39 PM CST
Nautical Twilight 5:42 AM CST 6:09 PM CST
Astronomical Twilight 5:12 AM CST 6:39 PM CST
Moon 1:12 AM CST 11:38 AM CST
Length of Visible Light 11h 25m
Length of Day
10h 32m
Last Quarter, 37% of the Moon is Illuminated
Feb 4
Last Quarter
Feb 10
New
Feb 17
First Quarter
Feb 25
Full
Mar 4
Last Quarter

Hourly Weather History & Observations

Time (CST) Temp. Windchill Dew Point Humidity Pressure Visibility Wind Dir Wind Speed Gust Speed Precip Events Conditions
12:15 AM 21.2 °F - 21.2 °F 100% 30.13 in 10.0 mi Calm Calm - N/A   Clear
12:35 AM 21.2 °F - 21.2 °F 100% 30.12 in 10.0 mi Calm Calm - N/A   Clear
12:55 AM 21.2 °F - 21.2 °F 100% 30.10 in 10.0 mi Calm Calm - N/A   Clear
1:15 AM 21.2 °F - 21.2 °F 100% 30.09 in 10.0 mi Calm Calm - N/A   Clear
1:35 AM 21.2 °F - 21.2 °F 100% 30.08 in 10.0 mi Calm Calm - N/A   Clear
1:55 AM 21.2 °F - 19.4 °F 93% 30.08 in 10.0 mi Calm Calm - N/A   Clear
2:15 AM 21.2 °F - 21.2 °F 100% 30.07 in 10.0 mi Calm Calm - N/A   Clear
2:35 AM 21.2 °F - 21.2 °F 100% 30.07 in 10.0 mi Calm Calm - N/A   Clear
2:55 AM 21.2 °F - 21.2 °F 100% 30.07 in 8.0 mi Calm Calm - N/A   Clear
3:15 AM 24.8 °F - 24.8 °F 100% 30.08 in 10.0 mi Calm Calm - N/A   Clear
4:55 AM 21.2 °F - 21.2 °F 100% 30.07 in 10.0 mi Calm Calm - N/A   Clear
5:15 AM 21.2 °F - 21.2 °F 100% 30.08 in 10.0 mi Calm Calm - N/A   Clear
5:35 AM 23.0 °F - 21.2 °F 93% 30.08 in 9.0 mi Calm Calm - N/A   Clear
5:55 AM 21.2 °F - 21.2 °F 100% 30.08 in 10.0 mi Calm Calm - N/A   Clear
6:15 AM 23.0 °F - 23.0 °F 100% 30.08 in 10.0 mi Calm Calm - N/A   Clear
6:55 AM 24.8 °F - 24.8 °F 100% 30.06 in 10.0 mi Calm Calm - N/A   Clear
7:15 AM 24.8 °F - 24.8 °F 100% 30.07 in 10.0 mi Calm Calm - N/A   Clear
7:35 AM 24.8 °F 20.5 °F 24.8 °F 100% 30.08 in 10.0 mi South 3.5 mph - N/A   Clear
7:55 AM 28.4 °F 22.2 °F 26.6 °F 93% 30.08 in 10.0 mi South 5.8 mph - N/A   Clear
8:15 AM 28.4 °F 22.2 °F 26.6 °F 93% 30.07 in 10.0 mi South 5.8 mph - N/A   Clear
8:35 AM 30.2 °F 23.4 °F 26.6 °F 86% 30.08 in 10.0 mi South 6.9 mph - N/A   Clear
8:55 AM 30.2 °F 24.3 °F 28.4 °F 93% 30.08 in 10.0 mi SSW 5.8 mph - N/A   Clear
9:15 AM 32.0 °F 25.6 °F 28.4 °F 87% 30.06 in 10.0 mi South 6.9 mph - N/A   Clear
9:35 AM 33.8 °F 29.6 °F 30.2 °F 87% 30.07 in 10.0 mi South 4.6 mph - N/A   Clear
9:55 AM 33.8 °F 27.7 °F 30.2 °F 87% 30.06 in 10.0 mi South 6.9 mph - N/A   Clear
10:15 AM 35.6 °F 30.7 °F 30.2 °F 81% 30.06 in 10.0 mi South 5.8 mph - N/A   Clear
10:35 AM 37.4 °F 33.8 °F 30.2 °F 75% 30.05 in 10.0 mi South 4.6 mph - N/A   Clear
10:55 AM 39.2 °F 35.0 °F 32.0 °F 75% 30.04 in 10.0 mi South 5.8 mph - N/A   Clear
11:15 AM 41.0 °F 36.4 °F 30.2 °F 65% 30.03 in 10.0 mi SSW 6.9 mph - N/A   Clear
11:35 AM 42.8 °F 38.6 °F 30.2 °F 61% 30.02 in 10.0 mi SSW 6.9 mph - N/A   Clear
11:55 AM 44.6 °F 40.7 °F 33.8 °F 66% 30.01 in 10.0 mi SSW 6.9 mph - N/A   Clear
12:15 PM 44.6 °F 40.7 °F 33.8 °F 66% 30.00 in 10.0 mi SSW 6.9 mph - N/A   Clear
12:35 PM 46.4 °F 42.4 °F 33.8 °F 62% 29.99 in 10.0 mi SSW 8.1 mph - N/A   Clear
12:55 PM 48.2 °F - 35.6 °F 62% 29.98 in 10.0 mi SSW 10.4 mph - N/A   Clear
1:15 PM 48.2 °F - 33.8 °F 58% 29.97 in 10.0 mi SSW 9.2 mph - N/A   Clear
1:35 PM 50.0 °F - 35.6 °F 58% 29.96 in 10.0 mi SSW 8.1 mph - N/A   Clear
1:55 PM 51.8 °F - 35.6 °F 54% 29.95 in 10.0 mi SW 12.7 mph - N/A   Clear
2:15 PM 51.8 °F - 33.8 °F 50% 29.95 in 10.0 mi SW 12.7 mph - N/A   Clear
2:35 PM 51.8 °F - 33.8 °F 50% 29.94 in 10.0 mi SW 13.8 mph - N/A   Clear
2:55 PM 51.8 °F - 33.8 °F 50% 29.93 in 10.0 mi SW 10.4 mph - N/A   Partly Cloudy
3:15 PM 51.8 °F - 33.8 °F 50% 29.93 in 10.0 mi SSW 15.0 mph - N/A   Partly Cloudy
3:35 PM 51.8 °F - 33.8 °F 50% 29.92 in 10.0 mi SSW 10.4 mph - N/A   Scattered Clouds
3:55 PM 51.8 °F - 35.6 °F 54% 29.92 in 10.0 mi SSW 10.4 mph - N/A   Partly Cloudy
4:15 PM 51.8 °F - 32.0 °F 47% 29.92 in 10.0 mi SW 10.4 mph - N/A   Scattered Clouds
4:35 PM 50.0 °F - 33.8 °F 54% 29.92 in 10.0 mi SSW 10.4 mph - N/A   Partly Cloudy
4:55 PM 48.2 °F - 32.0 °F 54% 29.92 in 10.0 mi SW 10.4 mph - N/A   Clear
5:15 PM 48.2 °F - 30.2 °F 50% 29.92 in 10.0 mi SW 10.4 mph - N/A   Partly Cloudy
5:35 PM 48.2 °F - 30.2 °F 50% 29.92 in 10.0 mi WSW 8.1 mph - N/A   Partly Cloudy
5:55 PM 48.2 °F - 30.2 °F 50% 29.93 in 10.0 mi WSW 4.6 mph - N/A   Partly Cloudy
6:15 PM 46.4 °F 44.3 °F 32.0 °F 57% 29.93 in 10.0 mi SW 4.6 mph - N/A   Mostly Cloudy
6:35 PM 46.4 °F 44.3 °F 30.2 °F 53% 29.93 in 10.0 mi SW 4.6 mph - N/A   Overcast
6:55 PM 44.6 °F 41.4 °F 32.0 °F 61% 29.93 in 10.0 mi SW 5.8 mph - N/A   Mostly Cloudy
7:15 PM 46.4 °F 41.9 °F 30.2 °F 53% 29.93 in 10.0 mi SW 9.2 mph - N/A   Overcast
7:35 PM 48.2 °F - 30.2 °F 50% 29.94 in 10.0 mi SW 9.2 mph - N/A   Overcast
7:55 PM 46.4 °F 41.9 °F 30.2 °F 53% 29.94 in 10.0 mi SW 9.2 mph - N/A   Overcast
8:15 PM 46.4 °F 41.5 °F 30.2 °F 53% 29.94 in 10.0 mi SW 10.4 mph - N/A   Overcast
8:35 PM 46.4 °F 42.4 °F 30.2 °F 53% 29.94 in 10.0 mi SW 8.1 mph - N/A   Overcast
8:55 PM 46.4 °F 43.5 °F 30.2 °F 53% 29.94 in 10.0 mi SW 5.8 mph - N/A   Overcast
9:15 PM 46.4 °F 42.9 °F 30.2 °F 53% 29.95 in 10.0 mi WSW 6.9 mph - N/A   Overcast
9:35 PM 46.4 °F 44.3 °F 30.2 °F 53% 29.95 in 10.0 mi WSW 4.6 mph - N/A   Overcast
9:55 PM 44.6 °F 41.4 °F 32.0 °F 61% 29.94 in 10.0 mi SW 5.8 mph - N/A   Overcast
10:15 PM 44.6 °F 40.7 °F 30.2 °F 57% 29.95 in 10.0 mi WSW 6.9 mph - N/A   Overcast
10:35 PM 44.6 °F 40.2 °F 32.0 °F 61% 29.95 in 10.0 mi WSW 8.1 mph - N/A   Overcast
10:55 PM 44.6 °F 41.4 °F 33.8 °F 66% 29.95 in 10.0 mi WSW 5.8 mph - N/A   Overcast
11:15 PM 44.6 °F 42.2 °F 33.8 °F 66% 29.94 in 10.0 mi WSW 4.6 mph - N/A   Overcast
11:35 PM 44.6 °F 42.2 °F 33.8 °F 66% 29.94 in 10.0 mi SW 4.6 mph - N/A   Overcast
11:55 PM 42.8 °F - 33.8 °F 70% 29.93 in 10.0 mi Calm Calm - N/A   Overcast